Leadville, CO

11:08 AM MDT on July 21, 2017 (GMT -0600)
Lake County

Weather History for KLXV - September, 2011

Change the Weather History Date:

Saturday, September 17, 2011

  Actual Average Record
Temperature  
Mean Temperature 42 °F -  
Max Temperature 51 °F 60 °F 72 °F (2010)
Min Temperature 33 °F 31 °F 19 °F (2006)
Degree Days  
Heating Degree Days 23 20  
Month to date heating degree days 309 294  
Since 1 July heating degree days 826 1016  
Cooling Degree Days 0 0  
Month to date cooling degree days 0 0  
Year to date cooling degree days 0 0  
Moisture  
Dew Point 34 °F    
Average Humidity 71    
Maximum Humidity 96    
Minimum Humidity 46    
Precipitation  
Precipitation 0.06 in 0.04 in 0.65 in (2007)
Month to date precipitation 1.42 0.68  
Year to date precipitation 12.19 9.63  
Snow  
Snow 0.00 in - - ()
Month to date snowfall 0.0  
Snow Depth 0.00 in    
Sea Level Pressure  
Sea Level Pressure 30.01 in    
Wind  
Wind Speed 6 mph (NNE)    
Max Wind Speed 26 mph    
Max Gust Speed 33 mph    
Visibility 9 miles    
Events Rain    
T = Trace of Precipitation, MM = Missing Value Source: NWS Daily Summary

Daily Weather History Graph

Daily Weather History Graph

Search for Another Location

Airport or City:

Trip Planner

Search our weather history database for the weather conditions in past years. The results will help you decide how hot, cold, wet, or windy it might be!

Date:

Astronomy

Sep. 17, 2011 Rise Set
Actual Time 6:48 AM MDT 7:10 PM MDT
Civil Twilight 6:21 AM MDT 7:37 PM MDT
Nautical Twilight 5:49 AM MDT 8:09 PM MDT
Astronomical Twilight 5:17 AM MDT 8:41 PM MDT
Moon 9:45 PM MDT (9/17) 11:50 AM MDT (9/17)
Length of Visible Light 13h 16m
Length of Day
12h 22m
Waning Gibbous, 76% of the Moon is Illuminated
Sep 17
Waning Gibbous
Sep 20
Last Quarter
Sep 27
New
Oct 3
First Quarter
Oct 11
Full

Hourly Weather History & Observations

Time (MDT) Temp. Windchill Dew Point Humidity Pressure Visibility Wind Dir Wind Speed Gust Speed Precip Events Conditions
12:53 AM 34.0 °F 31.0 °F 32.0 °F 92% 29.92 in 10.0 mi ESE 3.5 mph - N/A   Mostly Cloudy
1:53 AM 37.0 °F 34.5 °F 34.0 °F 89% 29.88 in 10.0 mi North 3.5 mph - N/A   Overcast
2:53 AM 37.9 °F 33.5 °F 35.1 °F 89% 29.88 in 10.0 mi East 5.8 mph - 0.00 in   Overcast
3:53 AM 39.0 °F 36.8 °F 35.1 °F 86% 29.86 in 10.0 mi East 3.5 mph - N/A   Mostly Cloudy
4:53 AM 39.0 °F - 34.0 °F 82% 29.85 in 10.0 mi Calm Calm - N/A   Overcast
5:53 AM 39.9 °F 35.1 °F 35.1 °F 83% 29.87 in 10.0 mi North 6.9 mph - N/A   Overcast
6:53 AM 41.0 °F 38.0 °F 34.0 °F 76% 29.88 in 10.0 mi NNE 4.6 mph - N/A   Overcast
7:53 AM 41.0 °F 35.8 °F 35.1 °F 79% 29.92 in 10.0 mi NNE 8.1 mph - N/A   Overcast
8:53 AM 43.0 °F 39.5 °F 35.1 °F 74% 29.91 in 10.0 mi North 5.8 mph - N/A   Overcast
9:53 AM 46.0 °F 42.5 °F 35.1 °F 66% 29.91 in 10.0 mi NNE 6.9 mph - N/A   Mostly Cloudy
10:53 AM 46.9 °F - 34.0 °F 61% 29.91 in 10.0 mi NNE 6.9 mph - 0.00 in Rain Light Rain
11:26 AM 42.8 °F 39.3 °F 35.6 °F 76% 30.26 in 2.5 mi West 5.8 mph 18.4 mph 0.01 in Rain Rain
11:34 AM 42.8 °F - 37.4 °F 81% 30.26 in 1.8 mi Calm Calm - 0.04 in Rain Light Rain
11:37 AM 42.8 °F - 37.4 °F 81% 30.26 in 3.0 mi Calm Calm - 0.04 in Rain Light Rain
11:53 AM 44.1 °F - 39.0 °F 82% 29.95 in 10.0 mi Calm Calm - 0.04 in Rain Light Rain
12:53 PM 45.0 °F 38.9 °F 37.9 °F 76% 29.96 in 10.0 mi NNW 12.7 mph 26.5 mph 0.00 in Rain Light Rain
1:53 PM 48.9 °F - 35.1 °F 59% 29.91 in 10.0 mi North 13.8 mph 25.3 mph 0.00 in Rain Light Rain
2:53 PM 48.9 °F - 34.0 °F 56% 29.89 in 10.0 mi North 13.8 mph 20.7 mph 0.00 in   Partly Cloudy
3:53 PM 50.0 °F - 30.9 °F 48% 29.88 in 10.0 mi North 15.0 mph 25.3 mph N/A   Partly Cloudy
4:53 PM 42.1 °F 32.8 °F 34.0 °F 73% 29.98 in 7.0 mi North 21.9 mph 33.4 mph 0.00 in Rain Light Rain
5:39 PM 35.6 °F 27.5 °F 35.6 °F 100% 30.33 in 6.0 mi NNE 11.5 mph 20.7 mph 0.01 in Rain Light Rain
5:53 PM 37.0 °F 31.6 °F 35.1 °F 93% 30.05 in 10.0 mi North 6.9 mph - 0.02 in   Mostly Cloudy
6:00 PM 37.4 °F 34.9 °F 35.6 °F 93% 30.34 in 10.0 mi NNE 3.5 mph - 0.00 in Rain Light Rain
6:53 PM 37.9 °F - 33.1 °F 83% 30.04 in 10.0 mi Calm Calm - 0.00 in   Clear
7:53 PM 37.0 °F 31.6 °F 30.9 °F 79% 30.04 in 10.0 mi NNW 6.9 mph - N/A   Partly Cloudy
8:53 PM 37.0 °F 34.5 °F 32.0 °F 82% 30.06 in 10.0 mi North 3.5 mph - N/A   Scattered Clouds
9:53 PM 36.0 °F - 32.0 °F 86% 30.06 in 10.0 mi Calm Calm - N/A   Overcast
10:53 PM 35.1 °F - 30.9 °F 85% 30.06 in 10.0 mi Calm Calm - N/A   Partly Cloudy
11:53 PM 34.0 °F 29.8 °F 30.9 °F 89% 30.09 in 10.0 mi East 4.6 mph - N/A   Mostly Cloudy